[[{"header":{"parameterUnit":"m.s-1","parameterCategory":2,"la1":30.2991,"la2":30.254,"lo1":-89.0895,"lo2":-89.0444,"dy":0.0017,"dx":0.0017,"nx":28,"ny":28,"refTime":"2023-11-06T09:00:00:Z","depth":"0","parameterNumber":2,"parameterNumberName":"U-component_of_CURRENTS"},"data":[0,0,0,0,0,0,0,0,0,0,0,0,0,0,0,0,0,0,0,0,0,0,0,0,0,0,0,0,0,0,0,0,0,0,0,0,0,0,0,0,0,0,0,0,0,0,0,0,0,0,0,0,0,0,0,0,0,0,0.1809,0.1807,0,0.1632,0.163,0.1628,0.1543,0.1543,0.1543,0.1543,0.1472,0.147,0.1468,0,0,0,0,0,0,0,0,0,0,0,0,0,0.1992,0.199,0.181,0.1807,0.1805,0.1632,0.163,0.1627,0.1543,0.1543,0.1543,0.1543,0.1472,0.147,0.1468,0,0,0,0,0,0,0,0,0,0,0,0,0,0.1876,0.199,0.181,0.174,0.1732,0.1632,0.163,0.1627,0.1543,0.1543,0.1543,0.1543,0.1473,0.147,0.1468,0.1456,0,0,0.146,0.1459,0,0,0,0,0,0,0,0,0.1883,0.187,0.1753,0.1745,0.1735,0.1607,0.1668,0.1574,0.1544,0.1618,0.1543,0.1543,0.1525,0.1518,0.1488,0.1453,0.1449,0.1459,0.1458,0.1457,0.1456,0,0,0,0,0,0,0,0.1892,0.1877,0.1742,0.175,0.1739,0.1688,0.1673,0.1649,0.1579,0.1611,0.1604,0.158,0.1522,0.149,0.1486,0.1448,0.146,0.1457,0.1456,0.1455,0.1474,0.1476,0,0,0,0,0,0,0.1913,0.1885,0.1747,0.1736,0.1807,0.1686,0.1668,0.1651,0.1577,0.1563,0.1581,0.1577,0.1495,0.1489,0.1483,0.1545,0.1457,0.1454,0.1453,0.1472,0.1474,0.1477,0,0,0,0,0,0,0.1917,0.1902,0.1754,0.1804,0.1781,0.1683,0.1664,0.1647,0.1627,0.1552,0.1541,0.1579,0.1494,0.1487,0.1481,0.1539,0.1453,0.1451,0.1469,0.1473,0.1475,0.1619,0,0,0,0,0,0,0.1924,0.1905,0.1919,0.1806,0.1779,0.1735,0.1663,0.1644,0.1611,0.1605,0.1547,0.1539,0.1494,0.1485,0.1478,0.1534,0.1449,0.1467,0.1471,0.1474,0.1612,0.1627,0.164,0,0,0,0,0,0.1931,0.1955,0.1921,0.1904,0.1795,0.1737,0.1721,0.165,0.1612,0.1627,0.1575,0.1541,0.1506,0.1484,0.1476,0.1532,0.1465,0.147,0.1474,0.1605,0.1624,0.1639,0,0,0,0,0,0,0.2047,0.1944,0.1905,0.1898,0.1839,0.1723,0.1727,0.1666,0.1631,0.1632,0.1555,0.1545,0.1572,0.1527,0.1504,0.155,0.1485,0.1489,0.1588,0.1605,0.1619,0.1707,0.1446,0,0,0,0,0,0.2076,0.207,0.1962,0.1965,0.1938,0.1835,0.1805,0.1755,0.1694,0.1677,0.1624,0.1587,0.1581,0.1572,0.1557,0.1568,0.1607,0.1602,0.1617,0.1629,0.1695,0.1806,0.1838,0.1492,0.1492,0.1492,0,0,0.2119,0.2066,0.2061,0.199,0.1935,0.1912,0.1819,0.1792,0.1782,0.1679,0.1671,0.164,0.1598,0.162,0.1628,0.1589,0.1741,0.1635,0.1646,0.1707,0.1815,0.1849,0.188,0.1495,0.1495,0.1494,0,0,0.2196,0.2159,0.217,0.2129,0.2059,0.1996,0.1996,0.1892,0.1868,0.1845,0.1787,0.1806,0.1742,0.1753,0.1744,0.183,0.182,0.18,0.1935,0.204,0.2071,0.2099,0.2172,0.2206,0.1797,0.1798,0.1798,0,0.2251,0.2236,0.217,0.2166,0.2139,0.2042,0.2042,0.2008,0.1919,0.1923,0.1873,0.1864,0.1829,0.1895,0.1925,0.1873,0.191,0.187,0.2064,0.2092,0.2119,0.2187,0.2223,0.1805,0.1804,0.1804,0.1803,0,0.2309,0.2306,0.2316,0.2274,0.2253,0.2243,0.2172,0.2167,0.2115,0.2075,0.2124,0.2085,0.209,0.2077,0.2026,0.2182,0.2141,0.2078,0.2032,0.2163,0.2225,0.2259,0.1816,0.1813,0.1811,0.1809,0,0,0.2374,0.2359,0.2357,0.2344,0.2302,0.2272,0.2307,0.2291,0.2306,0.2286,0.2327,0.2359,0.2346,0.2342,0.2293,0.2386,0.2585,0.232,0.2322,0.2414,0.2811,0.2799,0.2833,0.255,0.2557,0.2563,0.2773,0,0.2423,0.2441,0.2427,0.2438,0.2421,0.2387,0.2413,0.2407,0.2393,0.2414,0.2448,0.2463,0.2439,0.2436,0.255,0.2553,0.2686,0.2535,0.2654,0.2659,0.2651,0.2878,0.2905,0.3097,0.2806,0.2811,0.2815,0,0.2443,0.2452,0.2478,0.2478,0.2472,0.248,0.2496,0.2506,0.2555,0.2556,0.2639,0.2625,0.2763,0.27,0.2916,0.2812,0.2873,0.2893,0.2899,0.2882,0.2715,0.2922,0.317,0.3065,0.2867,0.2863,0.2859,0,0.2441,0.2467,0.2488,0.2484,0.2489,0.2513,0.2517,0.2552,0.2558,0.2648,0.2665,0.2822,0.2852,0.3011,0.3068,0.3006,0.3286,0.3181,0.3255,0.325,0.3303,0.3292,0.3496,0.3422,0.3421,0.3421,0.342,0,0.245,0.2452,0.2484,0.2481,0.2502,0.2512,0.2539,0.2572,0.2625,0.265,0.2735,0.2791,0.2937,0.3067,0.3159,0.3333,0.3378,0.338,0.3353,0.3345,0.3336,0.3263,0.3159,0.3428,0.3427,0.3425,0.3424,0,0.2404,0.2439,0.2436,0.2473,0.2485,0.2483,0.2505,0.2525,0.2592,0.2634,0.2666,0.2795,0.2985,0.3133,0.335,0.3414,0.3518,0.3627,0.3596,0.3565,0.3518,0.3418,0.348,0.3408,0.3782,0.3783,0.3785,0,0.2372,0.2374,0.2402,0.2401,0.2411,0.2421,0.243,0.2492,0.2513,0.2626,0.2649,0.2834,0.2953,0.3283,0.3491,0.3734,0.3585,0.3851,0.3773,0.3623,0.3492,0.3266,0.3183,0.3884,0.3886,0.3888,0.3889,0,0.2298,0.2312,0.2317,0.2322,0.2328,0.2329,0.2354,0.2365,0.2446,0.2511,0.2616,0.2725,0.306,0.331,0.3618,0.3784,0.37,0.3891,0.3784,0.3685,0.3415,0.3292,0.3584,0.3905,0.3903,0.3902,0.3901,0.3901,0.2225,0.2208,0.2224,0.2211,0.222,0.2217,0.2205,0.2262,0.2304,0.2391,0.2542,0.271,0.3111,0.3564,0.3702,0.3962,0.3786,0.3934,0.3856,0.3661,0.3529,0.3846,0.4082,0.4081,0.4081,0.4081,0.408,0,0.212,0.2115,0.2109,0.2094,0.2062,0.211,0.2133,0.2129,0.2166,0.233,0.2445,0.2839,0.3188,0.3542,0.395,0.3919,0.3809,0.3852,0.3577,0.3519,0.3903,0.3844,0.3982,0.3982,0.3982,0.3982,0.3982,0.3982,0.2059,0.202,0.2016,0.1932,0.1927,0.1889,0.189,0.1932,0.2039,0.2215,0.2412,0.2607,0.3075,0.3567,0.3808,0.382,0.3534,0.3449,0.3308,0.3606,0.3606,0.3606,0.3531,0.36,0.3599,0.289,0.2885,0.2881]},{"header":{"parameterUnit":"m.s-1","parameterCategory":2,"la1":30.2991,"la2":30.254,"lo1":-89.0895,"lo2":-89.0444,"dy":0.0017,"dx":0.0017,"nx":28,"ny":28,"refTime":"2023-11-06T09:00:00:Z","depth":"0","parameterNumber":3,"parameterNumberName":"V-component_of_CURRENTS"},"data":[0,0,0,0,0,0,0,0,0,0,0,0,0,0,0,0,0,0,0,0,0,0,0,0,0,0,0,0,0,0,0,0,0,0,0,0,0,0,0,0,0,0,0,0,0,0,0,0,0,0,0,0,0,0,0,0,0,0,0.0026,0.0026,0,0.003,0.003,0.003,0.0001,0.0,-0.0,-0.0001,-0.0061,-0.0062,-0.0063,0,0,0,0,0,0,0,0,0,0,0,0,0,-0.0006,-0.0005,0.0026,0.0026,0.0026,0.003,0.003,0.003,0.0001,0.0,-0.0,-0.0001,-0.0061,-0.0062,-0.0063,0,0,0,0,0,0,0,0,0,0,0,0,0,0.0003,-0.0005,0.0026,0.0013,0.0012,0.003,0.003,0.003,0.0001,0.0,-0.0001,-0.0002,-0.0061,-0.0062,-0.0064,-0.0051,0,0,-0.0068,-0.0069,0,0,0,0,0,0,0,0,0.0002,0.0004,0.0015,0.0014,0.0013,0.0015,-0.0003,0.0,0.0002,0.0004,-0.0001,-0.0002,-0.004,-0.0043,-0.0041,-0.0054,-0.0057,-0.0068,-0.0069,-0.007,-0.007,0,0,0,0,0,0,0,0.0002,0.0003,0.0026,0.0015,0.0014,0.0008,0.0008,-0.0003,-0.0014,0.0004,0.0002,0.0005,-0.0042,-0.004,-0.0043,-0.0058,-0.0068,-0.0069,-0.007,-0.0071,-0.0063,-0.0062,0,0,0,0,0,0,0.0005,0.0003,0.0026,0.0027,0.0006,0.0009,0.0009,0.0015,-0.0013,-0.0017,0.0006,0.0004,-0.0037,-0.0041,-0.0045,-0.0019,-0.007,-0.0071,-0.0072,-0.0064,-0.0063,-0.0062,0,0,0,0,0,0,0.0004,0.0007,0.0026,0.0016,0.0018,0.0011,0.0017,0.0015,0.0015,-0.001,-0.0017,0.0008,-0.0038,-0.0043,-0.0052,-0.0023,-0.0072,-0.0073,-0.0065,-0.0064,-0.0062,0.0023,0,0,0,0,0,0,0.0004,0.0007,0.0012,0.0016,0.0019,0.0033,0.0018,0.0016,0.0019,0.0016,-0.0011,-0.0017,-0.0039,-0.0049,-0.0053,-0.0026,-0.0074,-0.0067,-0.0065,-0.0063,0.0019,0.0028,0.0035,0,0,0,0,0,0.0002,0.0005,0.0012,0.0015,0.0026,0.0033,0.0034,0.0024,0.0021,0.0021,0.0008,-0.0016,-0.0039,-0.005,-0.0054,-0.0027,-0.0068,-0.0065,-0.0063,0.0016,0.0026,0.0035,0,0,0,0,0,0,-0.0019,0.0003,0.001,0.0016,0.0026,0.0028,0.0026,0.003,0.0023,0.0017,-0.0006,-0.0013,-0.0007,-0.003,-0.0041,-0.0019,-0.0056,-0.0055,0.0005,0.0015,0.0022,0.0061,-0.0075,0,0,0,0,0,-0.0015,-0.0004,0.0014,0.0017,0.0024,0.0031,0.0034,0.0032,0.0028,0.0024,0.0013,0.0001,0.0002,-0.0004,-0.0015,-0.0005,-0.0019,0.001,0.0018,0.0025,0.0053,0.0063,0.0074,-0.0054,-0.0054,-0.0054,0,0,-0.0024,-0.001,-0.0005,0.0015,0.002,0.0042,0.0029,0.0033,0.0058,0.0019,0.0039,0.0026,0.001,0.0024,0.0025,0.0006,0.0048,0.0028,0.0034,0.0059,0.0066,0.0079,0.009,-0.0052,-0.0053,-0.0053,0,0,-0.0031,-0.0021,-0.0007,0.0009,0.0027,0.0039,0.0045,0.0057,0.0067,0.0085,0.0073,0.0087,0.007,0.0085,0.0086,0.0133,0.009,0.0115,0.0187,0.0196,0.0207,0.0217,0.0192,0.0199,0.0119,0.0119,0.0119,0,-0.0043,-0.0013,-0.0005,0.0018,0.0041,0.0044,0.0073,0.0088,0.0098,0.0126,0.0096,0.0134,0.0112,0.0169,0.0181,0.0156,0.0134,0.0153,0.0209,0.0218,0.0226,0.0199,0.0205,0.0123,0.0123,0.0123,0.0122,0,-0.0026,-0.0001,0.0005,0.0049,0.007,0.0089,0.0122,0.0147,0.0162,0.0187,0.0239,0.0228,0.0256,0.025,0.0228,0.0289,0.0243,0.0217,0.0188,0.0245,0.0211,0.0216,0.013,0.0128,0.0127,0.0126,0,0,-0.0047,0.0009,0.0014,0.0052,0.0094,0.0118,0.0168,0.0231,0.0283,0.0298,0.0373,0.0389,0.0393,0.0397,0.0381,0.0394,0.0419,0.0333,0.0331,0.0315,0.041,0.035,0.0348,0.0395,0.0397,0.0399,0.0354,0,-0.0029,0.0025,0.0053,0.0115,0.0153,0.019,0.0244,0.03,0.034,0.0405,0.0436,0.0479,0.0446,0.0459,0.0477,0.0437,0.0441,0.0433,0.0353,0.0351,0.0297,0.0357,0.0386,0.0346,0.0359,0.0359,0.036,0,-0.0005,0.0033,0.0093,0.0179,0.02,0.0238,0.0343,0.039,0.0481,0.0512,0.0577,0.0588,0.0639,0.0584,0.0579,0.0568,0.0506,0.0466,0.0463,0.0389,0.0302,0.0296,0.0355,0.0227,0.0368,0.0367,0.0366,0,0.0003,0.0072,0.0127,0.0152,0.0238,0.0283,0.0333,0.0425,0.0482,0.058,0.0621,0.0686,0.07,0.0674,0.0601,0.0585,0.0567,0.0527,0.0419,0.0411,0.0416,0.0406,0.0357,0.0525,0.0525,0.0525,0.0525,0,0.0029,0.0075,0.0133,0.0165,0.0249,0.0298,0.0392,0.0457,0.0544,0.0621,0.067,0.0731,0.072,0.0709,0.0639,0.0549,0.0593,0.0455,0.0414,0.0441,0.0434,0.0305,0.0204,0.0523,0.0524,0.0524,0.0524,0,0.0038,0.0072,0.014,0.0222,0.0255,0.0312,0.0414,0.0484,0.0551,0.065,0.068,0.0758,0.0749,0.0714,0.0658,0.0577,0.0418,0.0453,0.047,0.0432,0.0209,0.011,0.0016,-0.0092,0.0341,0.0339,0.0338,0,0.0046,0.0079,0.017,0.0216,0.0255,0.0336,0.0403,0.0486,0.0553,0.0665,0.0715,0.0746,0.0793,0.0697,0.0586,0.0472,0.0349,0.0382,0.0371,0.0222,0.0082,0.0032,-0.0056,0.0397,0.0397,0.0396,0.0396,0,0.0065,0.0092,0.015,0.0239,0.031,0.0392,0.0481,0.0532,0.0628,0.0701,0.0788,0.0833,0.0766,0.0719,0.0559,0.0456,0.027,0.0362,0.0231,0.015,0.0075,-0.0058,0.0365,0.0391,0.0391,0.0392,0.0392,0.0392,0.0076,0.0119,0.0192,0.0277,0.0355,0.0445,0.0521,0.0605,0.0705,0.0841,0.0848,0.0962,0.0894,0.0707,0.0498,0.0212,0.0172,0.0142,0.004,0.0009,-0.0102,0.0285,0.0245,0.0244,0.0244,0.0244,0.0244,0,0.0101,0.0156,0.0231,0.0338,0.0418,0.046,0.0579,0.0659,0.0776,0.0918,0.1002,0.1125,0.0919,0.0704,0.0353,0.0024,-0.012,-0.0171,-0.0208,-0.0284,0.0105,0.0101,0.0,0.0,0.0,0.0,0.0001,0.0001,0.0125,0.0199,0.0239,0.0368,0.0445,0.0569,0.0641,0.0757,0.0882,0.1113,0.1283,0.1405,0.1448,0.0601,-0.0008,-0.0216,-0.0479,-0.0552,-0.0727,-0.0429,-0.0406,-0.0384,-0.0407,-0.0613,-0.0614,-0.1034,-0.1038,-0.1042]}],[{"header":{"parameterUnit":"m.s-1","parameterCategory":2,"la1":30.2991,"la2":30.254,"lo1":-89.0895,"lo2":-89.0444,"dy":0.0017,"dx":0.0017,"nx":28,"ny":28,"refTime":"2023-11-06T09:00:00:Z","depth":"2","parameterNumber":2,"parameterNumberName":"U-component_of_CURRENTS"},"data":[0,0,0,0,0,0,0,0,0,0,0,0,0,0,0,0,0,0,0,0,0,0,0,0,0,0,0,0,0,0,0,0,0,0,0,0,0,0,0,0,0,0,0,0,0,0,0,0,0,0,0,0,0,0,0,0,0,0,0.1489,0.149,0,0.1598,0.1599,0.16,0.1642,0.1642,0.1643,0.1643,0.1666,0.1667,0.1667,0,0,0,0,0,0,0,0,0,0,0,0,0,0.1334,0.1336,0.1489,0.149,0.1492,0.1598,0.1599,0.16,0.1642,0.1642,0.1643,0.1643,0.1666,0.1667,0.1667,0,0,0,0,0,0,0,0,0,0,0,0,0,0.1413,0.1336,0.1488,0.1529,0.1535,0.1598,0.1599,0.1601,0.1642,0.1642,0.1643,0.1643,0.1666,0.1667,0.1667,0.1669,0,0,0.167,0.167,0,0,0,0,0,0,0,0,0.1409,0.1418,0.1522,0.1527,0.1533,0.1611,0.1554,0.1621,0.1642,0.1596,0.1643,0.1643,0.1643,0.1645,0.166,0.167,0.1671,0.167,0.167,0.1671,0.1671,0,0,0,0,0,0,0,0.1403,0.1414,0.1527,0.1524,0.153,0.1549,0.156,0.1567,0.1612,0.16,0.1605,0.1625,0.1645,0.1659,0.1661,0.1671,0.167,0.1671,0.1671,0.1671,0.1721,0.1722,0,0,0,0,0,0,0.1398,0.1409,0.1524,0.1531,0.1475,0.1552,0.1564,0.1582,0.1614,0.1621,0.1624,0.1626,0.1658,0.166,0.1662,0.1694,0.1671,0.1671,0.1672,0.172,0.1721,0.1722,0,0,0,0,0,0,0.1394,0.1407,0.152,0.1476,0.1492,0.1555,0.1574,0.1584,0.1607,0.1634,0.1638,0.1639,0.1658,0.1661,0.1685,0.1694,0.1672,0.1673,0.1719,0.1721,0.1722,0.174,0,0,0,0,0,0,0.1389,0.1405,0.1411,0.1476,0.1495,0.1542,0.1575,0.1586,0.1621,0.1624,0.1648,0.165,0.1659,0.1684,0.1685,0.1695,0.1673,0.1718,0.172,0.1721,0.1738,0.1741,0.1744,0,0,0,0,0,0.1383,0.1375,0.1411,0.1425,0.1503,0.1542,0.1552,0.1594,0.1621,0.1618,0.1656,0.165,0.1695,0.1685,0.1687,0.1697,0.1717,0.1719,0.1721,0.1737,0.1741,0.1744,0,0,0,0,0,0,0.1296,0.1382,0.1421,0.1437,0.1487,0.155,0.1554,0.1597,0.1627,0.1633,0.1662,0.1666,0.1691,0.1692,0.1681,0.1717,0.1704,0.1707,0.1715,0.1719,0.1722,0.1705,0.1674,0,0,0,0,0,0.1288,0.1312,0.1392,0.1404,0.1428,0.1498,0.1521,0.1557,0.1599,0.1614,0.1644,0.1673,0.17,0.1708,0.1725,0.1741,0.1753,0.1749,0.1752,0.1755,0.1743,0.1784,0.179,0.1729,0.1729,0.1729,0,0,0.1259,0.1309,0.1323,0.1389,0.1431,0.1467,0.151,0.1542,0.1575,0.1609,0.1651,0.1683,0.1708,0.1735,0.1745,0.1736,0.1782,0.1757,0.1759,0.1745,0.1787,0.1793,0.1798,0.173,0.173,0.1729,0,0,0.1218,0.1258,0.1275,0.1316,0.1388,0.1431,0.1444,0.152,0.1551,0.1599,0.1642,0.1681,0.1716,0.1745,0.1762,0.1788,0.1799,0.1798,0.1796,0.1837,0.1843,0.1847,0.1882,0.1889,0.1797,0.1797,0.1797,0,0.1185,0.1227,0.1279,0.131,0.1347,0.1417,0.1447,0.1485,0.1562,0.1596,0.1605,0.1703,0.1718,0.1771,0.1784,0.1793,0.1821,0.178,0.1841,0.1846,0.185,0.1885,0.1893,0.1798,0.1798,0.1798,0.1798,0,0.1175,0.121,0.1215,0.1291,0.1323,0.1353,0.1427,0.1464,0.1519,0.1576,0.1643,0.1686,0.1747,0.176,0.1778,0.1828,0.184,0.1843,0.1829,0.1857,0.1892,0.19,0.1799,0.1799,0.1799,0.1798,0,0,0.1122,0.1197,0.1207,0.1247,0.1323,0.1356,0.1397,0.1472,0.1525,0.1583,0.1652,0.1702,0.1748,0.177,0.181,0.1837,0.1896,0.1853,0.1855,0.1883,0.1993,0.197,0.1977,0.192,0.1921,0.1922,0.2009,0,0.1115,0.1162,0.1204,0.1255,0.1292,0.1358,0.1399,0.1469,0.1535,0.1611,0.1666,0.1741,0.1747,0.1796,0.1823,0.189,0.1916,0.1872,0.1964,0.1967,0.1939,0.1984,0.1717,0.1769,0.2017,0.2019,0.202,0,0.1118,0.1153,0.1197,0.1273,0.1295,0.1332,0.1427,0.1475,0.1576,0.1629,0.1703,0.1764,0.1836,0.1829,0.193,0.1909,0.1944,0.1975,0.198,0.1951,0.1958,0.1779,0.1774,0.2033,0.2032,0.2031,0.203,0,0.1092,0.1159,0.1194,0.1221,0.1305,0.1341,0.1392,0.1488,0.1544,0.1656,0.1715,0.1803,0.1876,0.1922,0.1999,0.1977,0.2101,0.208,0.2083,0.2083,0.1865,0.1843,0.2126,0.2126,0.2126,0.2126,0.2126,0,0.1087,0.112,0.119,0.1214,0.1271,0.1334,0.1407,0.1473,0.1571,0.1649,0.1733,0.1812,0.1904,0.1993,0.2025,0.2095,0.2129,0.2087,0.2105,0.1866,0.1844,0.2074,0.2067,0.2129,0.2128,0.2128,0.2127,0,0.1068,0.1105,0.1157,0.1237,0.1263,0.1313,0.1409,0.1463,0.1561,0.1664,0.1705,0.1846,0.1972,0.2054,0.2159,0.2143,0.2199,0.2208,0.1925,0.1908,0.2139,0.2132,0.2207,0.2207,0.2207,0.2207,0.2207,0,0.1065,0.1088,0.1168,0.1194,0.1234,0.1306,0.1352,0.1452,0.1512,0.1684,0.1732,0.1894,0.1989,0.2136,0.211,0.2154,0.2251,0.197,0.1862,0.2138,0.2149,0.2142,0.2135,0.1583,0.1578,0.1574,0.1571,0,0.1061,0.109,0.1126,0.1181,0.123,0.1284,0.136,0.1401,0.1529,0.1613,0.1751,0.1839,0.1952,0.1897,0.1962,0.1936,0.1937,0.1888,0.2254,0.1617,0.156,0.1568,0.1579,0.1533,0.1537,0.154,0.1542,0.1543,0.1056,0.108,0.112,0.1172,0.1215,0.1259,0.129,0.1367,0.1445,0.1549,0.1682,0.172,0.1725,0.1675,0.1675,0.1635,0.1742,0.1653,0.1661,0.1675,0.1599,0.1547,0.1503,0.1506,0.1509,0.1512,0.1514,0,0.1052,0.1076,0.1109,0.1157,0.1178,0.1227,0.1289,0.1299,0.1364,0.1424,0.1519,0.1351,0.1328,0.1378,0.1221,0.1235,0.1159,0.1235,0.1108,0.1142,0.1173,0.107,0.0835,0.0834,0.0834,0.0834,0,0,0.1047,0.1066,0.108,0.1106,0.1142,0.1166,0.1194,0.1205,0.1218,0.1168,0.1125,0.1232,0.1253,0.1026,0.0998,0.0915,0.1028,0.0863,0.1379,0.1256,0.1288,0.1357,0.1229,0,0,0,0,0]},{"header":{"parameterUnit":"m.s-1","parameterCategory":2,"la1":30.2991,"la2":30.254,"lo1":-89.0895,"lo2":-89.0444,"dy":0.0017,"dx":0.0017,"nx":28,"ny":28,"refTime":"2023-11-06T09:00:00:Z","depth":"2","parameterNumber":3,"parameterNumberName":"V-component_of_CURRENTS"},"data":[0,0,0,0,0,0,0,0,0,0,0,0,0,0,0,0,0,0,0,0,0,0,0,0,0,0,0,0,0,0,0,0,0,0,0,0,0,0,0,0,0,0,0,0,0,0,0,0,0,0,0,0,0,0,0,0,0,0,-0.032,-0.0321,0,-0.0365,-0.0366,-0.0366,-0.0373,-0.0372,-0.0372,-0.0372,-0.0432,-0.0434,-0.0436,0,0,0,0,0,0,0,0,0,0,0,0,0,-0.0256,-0.0257,-0.032,-0.0321,-0.0321,-0.0365,-0.0366,-0.0366,-0.0373,-0.0372,-0.0372,-0.0371,-0.0431,-0.0434,-0.0436,0,0,0,0,0,0,0,0,0,0,0,0,0,-0.0291,-0.0258,-0.032,-0.033,-0.0331,-0.0365,-0.0366,-0.0367,-0.0373,-0.0372,-0.0372,-0.0371,-0.043,-0.0433,-0.0436,-0.0467,0,0,-0.0445,-0.0447,0,0,0,0,0,0,0,0,-0.0289,-0.0293,-0.0328,-0.0329,-0.0331,-0.0363,-0.0365,-0.0401,-0.0373,-0.0357,-0.0372,-0.0371,-0.0411,-0.0415,-0.0425,-0.047,-0.0473,-0.0446,-0.0447,-0.0449,-0.045,0,0,0,0,0,0,0,-0.0287,-0.0291,-0.0338,-0.0328,-0.033,-0.0338,-0.0342,-0.0372,-0.0387,-0.0358,-0.0359,-0.0364,-0.0411,-0.0422,-0.0426,-0.0474,-0.0446,-0.0448,-0.045,-0.0451,-0.0535,-0.0535,0,0,0,0,0,0,-0.0281,-0.0289,-0.0337,-0.0339,-0.0308,-0.0339,-0.0344,-0.0353,-0.0387,-0.0391,-0.0365,-0.0364,-0.0417,-0.0423,-0.0429,-0.0453,-0.0449,-0.0452,-0.0453,-0.0535,-0.0535,-0.0536,0,0,0,0,0,0,-0.028,-0.0285,-0.0335,-0.0315,-0.0322,-0.0341,-0.0351,-0.0354,-0.0358,-0.0391,-0.0395,-0.0364,-0.0417,-0.0424,-0.0452,-0.0456,-0.0453,-0.0456,-0.0534,-0.0535,-0.0535,-0.0512,0,0,0,0,0,0,-0.0278,-0.0284,-0.029,-0.0315,-0.0323,-0.0354,-0.0352,-0.0356,-0.0363,-0.0363,-0.0393,-0.0398,-0.0417,-0.0448,-0.0455,-0.046,-0.0458,-0.0534,-0.0534,-0.0535,-0.0512,-0.0512,-0.0511,0,0,0,0,0,-0.0275,-0.0281,-0.029,-0.0296,-0.033,-0.0355,-0.036,-0.0371,-0.0363,-0.037,-0.0387,-0.0397,-0.0458,-0.0451,-0.046,-0.0465,-0.0533,-0.0534,-0.0535,-0.0512,-0.0512,-0.0511,0,0,0,0,0,0,-0.0249,-0.0284,-0.0293,-0.0308,-0.0331,-0.0356,-0.0364,-0.0367,-0.0386,-0.0385,-0.0406,-0.0414,-0.0441,-0.0458,-0.0449,-0.0492,-0.0496,-0.0499,-0.0476,-0.0476,-0.0475,-0.0436,-0.046,0,0,0,0,0,-0.0249,-0.0267,-0.0297,-0.0309,-0.0321,-0.0341,-0.0351,-0.036,-0.0379,-0.0386,-0.0405,-0.0428,-0.0454,-0.0467,-0.0496,-0.052,-0.0531,-0.0529,-0.0529,-0.0528,-0.0503,-0.0544,-0.0545,-0.0539,-0.0539,-0.0539,0,0,-0.024,-0.0263,-0.0271,-0.0305,-0.0324,-0.0332,-0.0345,-0.0362,-0.0361,-0.0392,-0.0399,-0.0431,-0.0462,-0.0489,-0.0502,-0.0501,-0.0536,-0.0529,-0.0528,-0.0503,-0.0545,-0.0546,-0.0546,-0.0539,-0.0539,-0.0539,0,0,-0.0225,-0.0255,-0.026,-0.0281,-0.0311,-0.0327,-0.0329,-0.0355,-0.0362,-0.038,-0.04,-0.0429,-0.0466,-0.0489,-0.0504,-0.0519,-0.0536,-0.0532,-0.0495,-0.0537,-0.0537,-0.0537,-0.0549,-0.055,-0.0528,-0.0528,-0.0528,0,-0.0206,-0.0219,-0.0264,-0.0273,-0.0278,-0.0319,-0.0312,-0.0334,-0.0362,-0.0362,-0.0377,-0.0426,-0.0462,-0.0483,-0.0487,-0.0516,-0.0531,-0.0494,-0.0535,-0.0535,-0.0536,-0.0548,-0.055,-0.0527,-0.0527,-0.0527,-0.0527,0,-0.0192,-0.0202,-0.0208,-0.0231,-0.0248,-0.0253,-0.0287,-0.03,-0.0313,-0.0328,-0.0353,-0.0406,-0.0424,-0.0454,-0.0473,-0.0496,-0.0501,-0.0533,-0.0532,-0.0535,-0.0548,-0.055,-0.0526,-0.0526,-0.0526,-0.0526,0,0,-0.0134,-0.0184,-0.0182,-0.0178,-0.0221,-0.0226,-0.0238,-0.025,-0.0235,-0.0287,-0.0269,-0.0338,-0.0361,-0.0378,-0.042,-0.0458,-0.0488,-0.0488,-0.0491,-0.0489,-0.0556,-0.0533,-0.0534,-0.0532,-0.0532,-0.0533,-0.0561,0,-0.0096,-0.0095,-0.0132,-0.0116,-0.0112,-0.0155,-0.0154,-0.0176,-0.0198,-0.02,-0.0263,-0.0273,-0.0335,-0.0339,-0.039,-0.0459,-0.0494,-0.0475,-0.0559,-0.056,-0.0534,-0.0536,-0.0521,-0.0542,-0.0563,-0.0564,-0.0564,0,-0.0054,-0.006,-0.0038,-0.0045,-0.0044,-0.004,-0.0033,-0.0039,-0.0072,-0.0085,-0.012,-0.0168,-0.022,-0.0278,-0.0391,-0.0375,-0.0452,-0.0515,-0.0518,-0.05,-0.0543,-0.0544,-0.0546,-0.0569,-0.0568,-0.0568,-0.0568,0,0.0023,0.0015,0.004,0.0035,0.0014,0.0031,0.0028,0.0006,0.0022,-0.0004,0.001,-0.0078,-0.0096,-0.0218,-0.0344,-0.0369,-0.0463,-0.0522,-0.0573,-0.0572,-0.0572,-0.057,-0.06,-0.06,-0.06,-0.06,-0.06,0,0.0087,0.0107,0.0083,0.0096,0.0146,0.0107,0.0159,0.0144,0.0141,0.0174,0.0084,0.0098,-0.0082,-0.0162,-0.0303,-0.0425,-0.0436,-0.0548,-0.0577,-0.0563,-0.056,-0.0595,-0.0594,-0.0601,-0.0601,-0.0601,-0.0601,0,0.017,0.0145,0.0179,0.0175,0.0182,0.0224,0.0248,0.0282,0.0271,0.0314,0.0314,0.0238,0.0139,-0.0035,-0.0217,-0.0344,-0.0485,-0.0528,-0.0479,-0.0501,-0.0576,-0.0574,-0.0592,-0.0591,-0.0591,-0.059,-0.059,0,0.0211,0.0234,0.0251,0.028,0.0285,0.0331,0.0365,0.0356,0.039,0.0405,0.0434,0.0365,0.0324,0.0085,-0.0153,-0.0375,-0.0433,-0.0502,-0.0557,-0.0548,-0.0576,-0.0574,-0.0572,-0.0553,-0.0552,-0.0552,-0.0551,0,0.0298,0.0302,0.0324,0.0378,0.0422,0.0473,0.0516,0.056,0.056,0.0595,0.0629,0.0604,0.0398,0.0167,-0.0124,-0.0274,-0.047,-0.0497,-0.0511,-0.0549,-0.0512,-0.0539,-0.0538,-0.0547,-0.0547,-0.0548,-0.0548,-0.0548,0.0363,0.0401,0.0423,0.048,0.0531,0.0598,0.0654,0.0703,0.0767,0.0826,0.0783,0.0719,0.044,0.0052,-0.0154,-0.0381,-0.0409,-0.0531,-0.0533,-0.0536,-0.0517,-0.0481,-0.0505,-0.0505,-0.0505,-0.0506,-0.0506,0,0.0433,0.0461,0.052,0.0577,0.0647,0.0654,0.074,0.0802,0.0894,0.0907,0.0941,0.0621,0.0385,0.0091,-0.0245,-0.0441,-0.0457,-0.0493,-0.0502,-0.0506,-0.051,-0.049,-0.0471,-0.0471,-0.0471,-0.0471,0,0,0.0469,0.0524,0.0547,0.066,0.0709,0.0803,0.0857,0.096,0.0978,0.0963,0.0868,0.0793,0.0375,0.0123,-0.0132,-0.0299,-0.0339,-0.031,-0.0324,-0.0307,-0.0307,-0.0526,-0.0499,0,0,0,0,0]}],[{"header":{"parameterUnit":"m.s-1","parameterCategory":2,"la1":30.2991,"la2":30.254,"lo1":-89.0895,"lo2":-89.0444,"dy":0.0017,"dx":0.0017,"nx":28,"ny":28,"refTime":"2023-11-06T09:00:00:Z","depth":"4","parameterNumber":2,"parameterNumberName":"U-component_of_CURRENTS"},"data":[0,0,0,0,0,0,0,0,0,0,0,0,0,0,0,0,0,0,0,0,0,0,0,0,0,0,0,0,0,0,0,0,0,0,0,0,0,0,0,0,0,0,0,0,0,0,0,0,0,0,0,0,0,0,0,0,0,0,0.0193,0.0193,0,0.0221,0.0221,0.0221,0.0301,0.0303,0.0305,0.0307,0.0366,0.0366,0.0366,0,0,0,0,0,0,0,0,0,0,0,0,0,0.0172,0.0172,0.0193,0.0193,0.0194,0.0221,0.0221,0.0221,0.0301,0.0303,0.0306,0.0308,0.0366,0.0366,0.0366,0,0,0,0,0,0,0,0,0,0,0,0,0,0.0187,0.0172,0.0193,0.0238,0.0242,0.0221,0.0221,0.0221,0.0301,0.0303,0.0306,0.0309,0.0366,0.0366,0.0366,0.0309,0,0,0.0365,0.0365,0,0,0,0,0,0,0,0,0.0186,0.0188,0.0231,0.0235,0.024,0.0261,0.0235,0.0253,0.03,0.0277,0.0307,0.031,0.0333,0.0335,0.0333,0.0312,0.0315,0.0365,0.0365,0.0365,0.0365,0,0,0,0,0,0,0,0.0185,0.0187,0.0203,0.0231,0.0236,0.0244,0.0249,0.0239,0.0289,0.0279,0.0286,0.0289,0.0336,0.0332,0.0335,0.0315,0.0365,0.0365,0.0365,0.0365,0.0344,0.0343,0,0,0,0,0,0,0.0183,0.0186,0.0202,0.0204,0.022,0.0242,0.0248,0.0251,0.0288,0.0297,0.0287,0.0293,0.0331,0.0335,0.0337,0.0373,0.0365,0.0365,0.0365,0.0344,0.0343,0.0343,0,0,0,0,0,0,0.0182,0.0184,0.0201,0.0197,0.02,0.024,0.0242,0.025,0.0288,0.0294,0.0304,0.0323,0.0334,0.0337,0.0354,0.0373,0.0365,0.0365,0.0345,0.0344,0.0343,0.0381,0,0,0,0,0,0,0.0181,0.0183,0.0195,0.0196,0.02,0.021,0.0239,0.0248,0.0284,0.0294,0.0326,0.0333,0.0336,0.0354,0.0354,0.0372,0.0364,0.0345,0.0344,0.0343,0.038,0.0382,0.0383,0,0,0,0,0,0.018,0.0177,0.0196,0.0198,0.0211,0.0211,0.0213,0.025,0.0284,0.0296,0.0319,0.0334,0.0349,0.0353,0.0353,0.0372,0.0346,0.0344,0.0344,0.038,0.0381,0.0383,0,0,0,0,0,0,0.0173,0.0185,0.0206,0.0208,0.0222,0.0226,0.0242,0.0264,0.0289,0.0312,0.0325,0.0331,0.0349,0.0346,0.035,0.036,0.035,0.0349,0.0378,0.0379,0.038,0.0415,0.0364,0,0,0,0,0,0.0175,0.0181,0.0193,0.0199,0.021,0.0232,0.0243,0.0267,0.0283,0.03,0.0321,0.0335,0.0333,0.0349,0.0342,0.0347,0.0349,0.0358,0.0359,0.0361,0.0386,0.0378,0.0382,0.034,0.034,0.034,0,0,0.0172,0.0181,0.0186,0.0199,0.0217,0.0236,0.0248,0.0271,0.0297,0.0298,0.0345,0.0338,0.0331,0.034,0.0348,0.0351,0.0372,0.0359,0.0361,0.0386,0.0378,0.0382,0.0386,0.0339,0.0339,0.0339,0,0,0.0166,0.0183,0.0193,0.021,0.024,0.025,0.0266,0.0289,0.0318,0.0341,0.0346,0.0354,0.0364,0.036,0.0358,0.0358,0.0371,0.0359,0.0408,0.04,0.0404,0.0408,0.0415,0.042,0.037,0.037,0.037,0,0.0172,0.0185,0.0195,0.0216,0.024,0.0265,0.0292,0.0307,0.0335,0.0355,0.0369,0.0377,0.0373,0.0377,0.0388,0.0366,0.0372,0.0407,0.0404,0.0408,0.0411,0.0418,0.0422,0.0371,0.0371,0.0371,0.0371,0,0.0176,0.0201,0.0209,0.025,0.027,0.0295,0.0322,0.0352,0.039,0.0405,0.0429,0.0413,0.0432,0.0416,0.0413,0.0429,0.0429,0.04,0.0408,0.0418,0.0424,0.0428,0.0374,0.0373,0.0373,0.0372,0,0,0.0161,0.0207,0.0215,0.0247,0.0299,0.031,0.0358,0.0396,0.0434,0.0456,0.0495,0.0487,0.0499,0.0497,0.0479,0.0475,0.0498,0.0468,0.0466,0.0491,0.0505,0.0454,0.0453,0.0476,0.0477,0.0478,0.05,0,0.0176,0.0212,0.0238,0.0289,0.0317,0.0362,0.0399,0.0438,0.0474,0.0512,0.0508,0.0535,0.0522,0.054,0.0536,0.0503,0.0511,0.0497,0.0479,0.048,0.0444,0.0456,0.048,0.0503,0.0504,0.0505,0.0505,0,0.0184,0.0209,0.0258,0.0318,0.0338,0.0379,0.0454,0.049,0.0542,0.0573,0.0608,0.0611,0.0629,0.0605,0.0592,0.0591,0.0573,0.0539,0.0538,0.0487,0.0435,0.0488,0.0512,0.0511,0.0511,0.051,0.051,0,0.0165,0.0226,0.0267,0.0291,0.036,0.0407,0.0457,0.0519,0.0552,0.0628,0.0656,0.0678,0.0694,0.0675,0.0633,0.0631,0.0597,0.0574,0.051,0.0506,0.0531,0.0527,0.0572,0.0572,0.0572,0.0572,0.0571,0,0.0169,0.02,0.027,0.0293,0.0356,0.0415,0.0487,0.054,0.0607,0.0635,0.0697,0.0686,0.0716,0.0693,0.0657,0.0597,0.0622,0.0535,0.051,0.0544,0.0541,0.0534,0.0529,0.0572,0.0572,0.0572,0.0572,0,0.014,0.0185,0.023,0.0314,0.0349,0.04,0.0502,0.0539,0.0621,0.0661,0.0693,0.0716,0.068,0.0676,0.0632,0.062,0.0562,0.0531,0.0587,0.0561,0.0482,0.0479,0.0492,0.0491,0.0489,0.0488,0.0487,0,0.013,0.015,0.0233,0.0271,0.0321,0.0404,0.0453,0.0545,0.0575,0.0632,0.0626,0.0635,0.0634,0.0549,0.0533,0.0502,0.0477,0.0513,0.0498,0.0501,0.0475,0.0474,0.0472,0.0485,0.0485,0.0485,0.0484,0,0.0105,0.0136,0.0171,0.0245,0.0311,0.0364,0.044,0.0451,0.0537,0.0602,0.0576,0.0572,0.0521,0.0483,0.0484,0.0435,0.0532,0.0498,0.0501,0.0488,0.0492,0.0467,0.0468,0.048,0.048,0.0481,0.0481,0,0.0086,0.0099,0.0151,0.022,0.0288,0.0321,0.0358,0.0396,0.0436,0.0514,0.047,0.046,0.0482,0.044,0.0395,0.0398,0.0391,0.0435,0.0441,0.0446,0.0417,0.0415,0.037,0,0,0,0,0,0.0072,0.0083,0.0127,0.0194,0.0257,0.03,0.0348,0.0377,0.0438,0.042,0.0467,0.0411,0.0389,0.0348,0.0334,0.0339,0.0375,0.0325,0.0425,0.0454,0.0459,0.0427,0,0,0,0,0,0,0.006,0.0089,0.0107,0.0168,0.0212,0.0268,0.0294,0.0324,0.0316,0.0377,0.0333,0.0426,0.0357,0.0389,0.0333,0.0334,0.0403,0.0333,0.0334,0.0451,0.0455,0.046,0.0428,0,0,0,0,0]},{"header":{"parameterUnit":"m.s-1","parameterCategory":2,"la1":30.2991,"la2":30.254,"lo1":-89.0895,"lo2":-89.0444,"dy":0.0017,"dx":0.0017,"nx":28,"ny":28,"refTime":"2023-11-06T09:00:00:Z","depth":"4","parameterNumber":3,"parameterNumberName":"V-component_of_CURRENTS"},"data":[0,0,0,0,0,0,0,0,0,0,0,0,0,0,0,0,0,0,0,0,0,0,0,0,0,0,0,0,0,0,0,0,0,0,0,0,0,0,0,0,0,0,0,0,0,0,0,0,0,0,0,0,0,0,0,0,0,0,0.0351,0.0351,0,0.0295,0.0294,0.0293,0.0219,0.0219,0.0218,0.0217,0.0062,0.0059,0.0056,0,0,0,0,0,0,0,0,0,0,0,0,0,0.0325,0.0326,0.0351,0.0351,0.0351,0.0295,0.0294,0.0293,0.022,0.0219,0.0218,0.0217,0.0063,0.0059,0.0055,0,0,0,0,0,0,0,0,0,0,0,0,0,0.0305,0.0326,0.0351,0.0311,0.0307,0.0295,0.0294,0.0292,0.022,0.0219,0.0217,0.0216,0.0065,0.006,0.0055,0.0046,0,0,0.0039,0.0037,0,0,0,0,0,0,0,0,0.0306,0.0305,0.0317,0.0314,0.031,0.0267,0.0228,0.0207,0.022,0.0248,0.0217,0.0216,0.0126,0.0116,0.0102,0.0038,0.0032,0.0039,0.0035,0.0033,0.0032,0,0,0,0,0,0,0,0.0308,0.0307,0.0324,0.0317,0.0313,0.0272,0.0268,0.0223,0.0188,0.0245,0.0241,0.0243,0.0122,0.0107,0.0098,0.0029,0.0039,0.0034,0.0031,0.0029,-0.012,-0.0121,0,0,0,0,0,0,0.033,0.0309,0.0326,0.0323,0.0311,0.0274,0.0269,0.0278,0.0191,0.0179,0.0244,0.024,0.0116,0.0104,0.0092,0.002,0.0033,0.0028,0.0026,-0.0119,-0.012,-0.0121,0,0,0,0,0,0,0.033,0.0332,0.0328,0.0318,0.0315,0.0277,0.0286,0.0278,0.0251,0.0192,0.0176,0.0226,0.0115,0.0099,0.0036,0.0015,0.0026,0.0021,-0.0118,-0.0119,-0.012,-0.0089,0,0,0,0,0,0,0.0329,0.0333,0.0351,0.032,0.0317,0.0329,0.0288,0.0278,0.0257,0.025,0.0171,0.0156,0.0113,0.0044,0.0031,0.0008,0.0017,-0.0117,-0.0118,-0.012,-0.0089,-0.0089,-0.0089,0,0,0,0,0,0.0328,0.0348,0.0352,0.0355,0.0342,0.0331,0.0325,0.0289,0.0257,0.0257,0.0188,0.0158,0.0024,0.004,0.0024,-0.0001,-0.0116,-0.0118,-0.012,-0.0089,-0.0089,-0.0089,0,0,0,0,0,0,0.0335,0.0342,0.0346,0.0365,0.0359,0.032,0.0323,0.029,0.0237,0.0221,0.015,0.0131,0.0067,0.0032,0.005,-0.0049,-0.0052,-0.0057,-0.0023,-0.0024,-0.0024,-0.0026,0.0013,0,0,0,0,0,0.0354,0.0374,0.0369,0.0386,0.0391,0.0357,0.0348,0.0321,0.0273,0.0248,0.0184,0.0114,0.0051,0.0013,-0.0039,-0.009,-0.011,-0.0118,-0.0118,-0.0117,-0.013,-0.0167,-0.0171,-0.0127,-0.0127,-0.0127,0,0,0.0358,0.0368,0.0378,0.039,0.0385,0.0377,0.0347,0.0337,0.0303,0.0239,0.0169,0.0115,0.0039,-0.0022,-0.0054,-0.0058,-0.0137,-0.012,-0.0119,-0.0132,-0.0169,-0.0173,-0.0177,-0.0129,-0.0128,-0.0128,0,0,0.0366,0.0395,0.041,0.0415,0.0418,0.0396,0.0394,0.0353,0.0315,0.0255,0.0191,0.0124,0.0033,-0.003,-0.0074,-0.0106,-0.0132,-0.0123,-0.0133,-0.0167,-0.0171,-0.0174,-0.0183,-0.0188,-0.0128,-0.0128,-0.0128,0,0.0371,0.0392,0.041,0.0423,0.0418,0.0403,0.0394,0.0362,0.0292,0.0247,0.0237,0.0078,0.0025,-0.0073,-0.0089,-0.0107,-0.0121,-0.0123,-0.0166,-0.017,-0.0174,-0.0183,-0.0188,-0.0126,-0.0126,-0.0127,-0.0127,0,0.0378,0.0403,0.0415,0.0426,0.0421,0.042,0.0388,0.0354,0.0303,0.0252,0.0154,0.0083,-0.0017,-0.004,-0.008,-0.0149,-0.0144,-0.0153,-0.0159,-0.0176,-0.0184,-0.0191,-0.0125,-0.0125,-0.0125,-0.0126,0,0,0.0366,0.041,0.0417,0.042,0.0422,0.0409,0.0368,0.0313,0.0261,0.0198,0.0117,0.0015,-0.0025,-0.0077,-0.0128,-0.0164,-0.0193,-0.0172,-0.0174,-0.017,-0.0252,-0.0224,-0.0229,-0.0206,-0.0207,-0.0209,-0.0237,0,0.0364,0.039,0.0401,0.0398,0.0403,0.0382,0.0341,0.0284,0.0227,0.0153,0.0073,-0.0008,-0.0037,-0.0082,-0.0126,-0.0189,-0.0213,-0.0184,-0.0247,-0.0249,-0.0214,-0.0237,-0.0213,-0.0242,-0.0243,-0.0244,-0.0245,0,0.036,0.0379,0.039,0.038,0.0378,0.0364,0.0293,0.0254,0.0163,0.0115,0.0032,-0.0026,-0.0117,-0.0114,-0.0221,-0.02,-0.0225,-0.0254,-0.0255,-0.0251,-0.0235,-0.023,-0.0256,-0.0256,-0.0255,-0.0254,-0.0253,0,0.0336,0.0361,0.0367,0.0372,0.0363,0.0337,0.0311,0.0234,0.0191,0.0099,0.0062,-0.0051,-0.0103,-0.0166,-0.0232,-0.023,-0.0318,-0.032,-0.0313,-0.031,-0.0337,-0.0333,-0.037,-0.037,-0.037,-0.037,-0.037,0,0.0321,0.0328,0.0364,0.037,0.0345,0.0334,0.0283,0.0237,0.0176,0.0123,0.0049,-0.0013,-0.0116,-0.0183,-0.0235,-0.0296,-0.032,-0.0323,-0.0325,-0.032,-0.0315,-0.034,-0.0336,-0.0371,-0.0371,-0.0371,-0.0371,0,0.0292,0.0327,0.0338,0.0346,0.0343,0.0323,0.0291,0.0251,0.0206,0.0142,0.0118,0.0009,-0.008,-0.0158,-0.026,-0.029,-0.0352,-0.0355,-0.033,-0.0328,-0.0317,-0.0311,-0.0365,-0.0364,-0.0364,-0.0364,-0.0363,0,0.0279,0.0292,0.0327,0.0331,0.0339,0.0319,0.0298,0.0261,0.0229,0.0148,0.0115,0.0025,-0.005,-0.0174,-0.0253,-0.0334,-0.0336,-0.0354,-0.0357,-0.0325,-0.0321,-0.0316,-0.0311,-0.0363,-0.0363,-0.0363,-0.0362,0,0.0247,0.0277,0.0291,0.0311,0.0312,0.0299,0.0277,0.0256,0.021,0.0188,0.0099,0.002,-0.007,-0.0178,-0.0225,-0.0288,-0.0347,-0.035,-0.0351,-0.0354,-0.0323,-0.0318,-0.0314,-0.0361,-0.0361,-0.0361,-0.0361,0,0.0227,0.0233,0.0268,0.0275,0.0286,0.0274,0.0259,0.0225,0.0197,0.0133,0.0101,0.0,-0.006,-0.0153,-0.0212,-0.0259,-0.0274,-0.0286,-0.0291,-0.0293,-0.0263,-0.0212,-0.0227,0,0,0,0,0,0.0202,0.0208,0.0219,0.0238,0.0255,0.026,0.0241,0.0229,0.0204,0.015,0.013,0.0047,-0.0062,-0.0129,-0.0171,-0.0204,-0.0279,-0.0254,-0.0294,-0.0353,-0.0354,-0.033,0,0,0,0,0,0,0.0184,0.0199,0.021,0.0214,0.0222,0.023,0.022,0.0201,0.0168,0.0139,0.0075,0.0057,-0.0055,-0.0027,-0.0164,-0.0182,-0.0209,-0.0301,-0.0302,-0.0352,-0.0353,-0.0355,-0.033,0,0,0,0,0]}]]